map of KBUY home
KBUY - Airport
Location
City:  Burlington, North Carolina, United States
Name:Burlington-Alamance Regional
ICAO:KBUY
FAA LID:BUY

Details
Type:Airport (Airfield)
Use:Public/Civil
Latitude:3602'59"N (36.049728)
Longitude:7928'23"W (-79.473009)
Datum:WGS 1984
Elevation:616 ft (188 m)
Variation:8.80W (WMM2015 magnetic declination)
-0.04 annual change
Runways:1
Longest:6405 × 100 ft (1952 × 30.5 m), paved

Time
Time Zone:UTC-5 (DST-4)
Local Time:

Weather
METAR:KBUY 241454Z AUTO 07004KT 10SM -RA OVC012 16/14 A2996 RMK AO2 RAB35 SLP143 P0000 60002 T01610144 58013

Related Locations
Nearby:
Farthest:YAUG: 11608 mi / 18681 km
Augusta [Augusta Airport], WA, AU

Find:

   beyond  
but within

Other Information
Maps:
NOTAMs:
Links:
Sources:

  
flag of United States
flag of North Carolina
  

Sectional Chart

Flight Planning
at skyvector.com

Satellite Image

Google Maps Satellite view

 

Copyright © 2004-2018 Karl L. Swartz. All rights reserved.
The Great Circle Mapper name and logo are trademarks of the Great Circle Mapper.
All other trademarks mentioned herein belong to their respective owners.
Please see credits for attibutions and further copyright information.

  Follow gcmap on Facebook Follow gcmap on Twitter Follow gcmap on Google+ GCmap on LinkedIn

hCard Microformat

Geo Microformat